SAS420 ESGG-ENBR

Flight info

Callsign SAS420
Flight time 1h 0m
Altitude 38000
Route DETNA3J DETNA DCT ARTOR DCT TITUX DCT PESUR PESUR3N
Aircraft A320/M-SDE2E3FGHIJ1RWXY/L

Departure

Time 2026-05-06 14:52
Airport Göteborg Landvetter Airport (ESGG)

Arrival

Time 2026-05-06 15:52
Airport Bergen Airport, Flesland (ENBR)
Time Latitude Longitude Altitude Speed Heading
2026-05-06 14:23 57.67055 12.29546 511 ft 0 kts 116°
2026-05-06 14:45 57.67057 12.29500 511 ft 3 kts 73°
2026-05-06 14:45 57.67052 12.29466 511 ft 3 kts 73°
2026-05-06 14:45 57.67046 12.29432 511 ft 3 kts 54°
2026-05-06 14:45 57.67033 12.29407 510 ft 3 kts 38°
2026-05-06 14:46 57.67023 12.29395 510 ft 0 kts 25°
2026-05-06 14:49 57.67044 12.29413 511 ft 14 kts 25°
2026-05-06 14:49 57.67193 12.29526 512 ft 8 kts 346°
2026-05-06 14:49 57.67232 12.29418 512 ft 21 kts 313°
2026-05-06 14:50 57.67299 12.29414 513 ft 16 kts 30°
2026-05-06 14:50 57.67457 12.29564 514 ft 34 kts 24°
2026-05-06 14:50 57.67539 12.29572 515 ft 0 kts 322°
2026-05-06 14:51 57.67541 12.29570 515 ft 2 kts 321°
2026-05-06 14:51 57.67565 12.29498 515 ft 14 kts 297°
2026-05-06 14:51 57.67586 12.29295 515 ft 19 kts 260°
2026-05-06 14:51 57.67498 12.29082 512 ft 25 kts 206°
2026-05-06 14:52 57.67434 12.29023 512 ft 34 kts 206°
2026-05-06 14:52 57.66930 12.28559 508 ft 124 kts 205°
2026-05-06 14:52 57.65951 12.27668 665 ft 177 kts 208°
2026-05-06 14:52 57.64741 12.26645 1298 ft 207 kts 207°
2026-05-06 14:53 57.63357 12.25430 2260 ft 230 kts 207°
2026-05-06 14:53 57.61919 12.24095 3335 ft 236 kts 207°
2026-05-06 14:53 57.60454 12.22666 4475 ft 238 kts 207°
2026-05-06 14:53 57.58991 12.21225 5683 ft 236 kts 206°
2026-05-06 14:54 57.57595 12.19542 6647 ft 250 kts 221°
2026-05-06 14:54 57.56598 12.16750 7337 ft 270 kts 250°
2026-05-06 14:54 57.56175 12.13307 8368 ft 275 kts 257°
2026-05-06 14:54 57.55806 12.09766 8799 ft 281 kts 257°
2026-05-06 14:55 57.55431 12.06192 9155 ft 282 kts 258°
2026-05-06 14:55 57.55080 12.02602 9948 ft 285 kts 259°
2026-05-06 14:55 57.54718 11.98929 10808 ft 296 kts 259°
2026-05-06 14:55 57.54325 11.95030 11266 ft 317 kts 260°
2026-05-06 14:56 57.54111 11.90856 11971 ft 328 kts 268°
2026-05-06 14:56 57.54228 11.86585 12937 ft 332 kts 276°
2026-05-06 14:56 57.54498 11.82299 13850 ft 336 kts 276°
2026-05-06 14:56 57.54761 11.77956 14700 ft 338 kts 275°
2026-05-06 14:57 57.55020 11.73597 15568 ft 340 kts 275°
2026-05-06 14:57 57.55274 11.69266 16398 ft 343 kts 275°
2026-05-06 14:57 57.55532 11.64838 17242 ft 345 kts 274°
2026-05-06 14:57 57.55791 11.60374 18079 ft 348 kts 274°
2026-05-06 14:58 57.56050 11.55878 18795 ft 350 kts 274°
2026-05-06 14:58 57.56310 11.51350 19523 ft 352 kts 274°
2026-05-06 14:58 57.56569 11.46808 20257 ft 354 kts 273°
2026-05-06 14:58 57.56828 11.42232 20969 ft 356 kts 273°
2026-05-06 14:59 57.57087 11.37630 21677 ft 358 kts 273°
2026-05-06 14:59 57.57346 11.32999 22375 ft 361 kts 273°
2026-05-06 14:59 57.57606 11.28327 23064 ft 363 kts 272°
2026-05-06 14:59 57.57865 11.23624 23676 ft 367 kts 272°
2026-05-06 15:00 57.58126 11.18872 23892 ft 368 kts 272°
2026-05-06 15:00 57.58452 11.14123 23952 ft 371 kts 278°
2026-05-06 15:00 57.59309 11.09541 23955 ft 379 kts 291°
2026-05-06 15:00 57.60782 11.05407 23956 ft 389 kts 305°
2026-05-06 15:01 57.62820 11.02000 23957 ft 400 kts 319°
2026-05-06 15:01 57.65166 10.99171 23956 ft 402 kts 321°
2026-05-06 15:01 57.67492 10.96391 23958 ft 402 kts 321°
2026-05-06 15:01 57.69511 10.93968 23959 ft 402 kts 321°
2026-05-06 15:02 57.71853 10.91144 23959 ft 401 kts 321°
2026-05-06 15:02 57.74204 10.88297 23959 ft 401 kts 321°
2026-05-06 15:02 57.76546 10.85453 23958 ft 401 kts 321°
2026-05-06 15:02 57.78889 10.82603 23961 ft 401 kts 321°
2026-05-06 15:03 57.81232 10.79746 23962 ft 401 kts 321°
2026-05-06 15:03 57.83570 10.76891 23966 ft 401 kts 321°
2026-05-06 15:03 57.85907 10.74033 23966 ft 401 kts 321°
2026-05-06 15:03 57.88242 10.71172 23964 ft 401 kts 321°
2026-05-06 15:04 57.90576 10.68308 23965 ft 401 kts 321°
2026-05-06 15:04 57.92914 10.65435 23966 ft 401 kts 321°
2026-05-06 15:04 57.95217 10.62600 23965 ft 401 kts 321°
2026-05-06 15:04 57.97548 10.59728 23965 ft 400 kts 320°
2026-05-06 15:05 57.99878 10.56852 23965 ft 400 kts 320°
2026-05-06 15:05 58.02205 10.53975 23968 ft 400 kts 320°
2026-05-06 15:05 58.04535 10.51091 23968 ft 400 kts 320°
2026-05-06 15:05 58.06855 10.48214 23968 ft 399 kts 320°
2026-05-06 15:06 58.09177 10.45331 23966 ft 400 kts 320°
2026-05-06 15:06 58.11502 10.42438 23966 ft 399 kts 320°
2026-05-06 15:06 58.13820 10.39550 23968 ft 399 kts 320°
2026-05-06 15:06 58.16136 10.36659 23968 ft 399 kts 320°
2026-05-06 15:07 58.18453 10.33764 23972 ft 399 kts 320°
2026-05-06 15:07 58.20766 10.30869 23967 ft 399 kts 320°
2026-05-06 15:07 58.23086 10.27961 23966 ft 398 kts 320°
2026-05-06 15:07 58.25394 10.25061 23970 ft 398 kts 320°
2026-05-06 15:08 58.27702 10.22159 23969 ft 398 kts 320°
2026-05-06 15:08 58.30007 10.19255 23968 ft 398 kts 320°
2026-05-06 15:08 58.32313 10.16346 23961 ft 398 kts 320°
2026-05-06 15:08 58.34524 10.13217 23968 ft 392 kts 313°
2026-05-06 15:09 58.36608 10.09865 23972 ft 392 kts 313°
2026-05-06 15:09 58.38705 10.06542 23971 ft 392 kts 314°
2026-05-06 15:09 58.40778 10.03265 23971 ft 392 kts 314°
2026-05-06 15:09 58.42877 9.99940 23969 ft 392 kts 313°
2026-05-06 15:10 58.44970 9.96615 23969 ft 391 kts 313°
2026-05-06 15:10 58.47062 9.93280 23973 ft 391 kts 313°
2026-05-06 15:10 58.49148 9.89946 23976 ft 390 kts 313°
2026-05-06 15:10 58.51230 9.86613 23971 ft 390 kts 313°
2026-05-06 15:11 58.53315 9.83269 23973 ft 390 kts 313°
2026-05-06 15:11 58.55397 9.79926 23970 ft 390 kts 313°
2026-05-06 15:11 58.57476 9.76581 23971 ft 390 kts 313°
2026-05-06 15:11 58.59551 9.73238 23972 ft 389 kts 313°
2026-05-06 15:12 58.61617 9.69903 23970 ft 389 kts 313°
2026-05-06 15:12 58.63690 9.66552 23971 ft 389 kts 313°
2026-05-06 15:12 58.65755 9.63208 23968 ft 388 kts 313°
2026-05-06 15:12 58.67820 9.59860 23969 ft 388 kts 313°
2026-05-06 15:13 58.69812 9.56624 23965 ft 388 kts 313°
2026-05-06 15:13 58.71875 9.53269 23967 ft 388 kts 313°
2026-05-06 15:13 58.73906 9.49959 23963 ft 388 kts 313°
2026-05-06 15:13 58.75962 9.46604 23963 ft 387 kts 313°
2026-05-06 15:14 58.78021 9.43238 23962 ft 387 kts 313°
2026-05-06 15:14 58.80078 9.39871 23960 ft 387 kts 313°
2026-05-06 15:14 58.82126 9.36512 23956 ft 387 kts 313°
2026-05-06 15:14 58.84177 9.33143 23956 ft 387 kts 313°
2026-05-06 15:15 58.86231 9.29763 23954 ft 387 kts 313°
2026-05-06 15:15 58.88279 9.26388 23953 ft 387 kts 313°
2026-05-06 15:15 58.90327 9.23007 23951 ft 387 kts 313°
2026-05-06 15:15 58.92349 9.19663 23950 ft 387 kts 312°
2026-05-06 15:16 58.94394 9.16277 23949 ft 386 kts 312°
2026-05-06 15:16 58.96434 9.12892 23947 ft 386 kts 312°
2026-05-06 15:16 58.98474 9.09505 23948 ft 386 kts 312°
2026-05-06 15:16 59.00514 9.06109 23944 ft 386 kts 312°
2026-05-06 15:17 59.02549 9.02718 23943 ft 386 kts 312°
2026-05-06 15:17 59.04560 8.99271 23935 ft 383 kts 309°
2026-05-06 15:17 59.06444 8.95620 23934 ft 383 kts 308°
2026-05-06 15:17 59.08322 8.92029 23934 ft 383 kts 309°
2026-05-06 15:18 59.10228 8.88404 23937 ft 382 kts 309°
2026-05-06 15:18 59.12126 8.84792 23935 ft 382 kts 308°
2026-05-06 15:18 59.14026 8.81158 23938 ft 383 kts 308°
2026-05-06 15:18 59.15926 8.77513 23942 ft 381 kts 308°
2026-05-06 15:19 59.17815 8.73877 23938 ft 381 kts 308°
2026-05-06 15:19 59.19702 8.70236 23943 ft 381 kts 308°
2026-05-06 15:19 59.21587 8.66596 23941 ft 380 kts 308°
2026-05-06 15:19 59.23461 8.62974 23945 ft 378 kts 308°
2026-05-06 15:20 59.25330 8.59353 23949 ft 379 kts 308°
2026-05-06 15:20 59.27209 8.55699 23947 ft 380 kts 308°
2026-05-06 15:20 59.29055 8.52110 23946 ft 378 kts 308°
2026-05-06 15:20 59.30943 8.48436 23950 ft 378 kts 308°
2026-05-06 15:21 59.32781 8.44851 23955 ft 378 kts 308°
2026-05-06 15:21 59.34640 8.41218 23953 ft 377 kts 308°
2026-05-06 15:21 59.36499 8.37581 23955 ft 377 kts 308°
2026-05-06 15:21 59.38353 8.33948 23957 ft 376 kts 308°
2026-05-06 15:22 59.40200 8.30324 23959 ft 376 kts 308°
2026-05-06 15:22 59.42047 8.26689 23961 ft 376 kts 308°
2026-05-06 15:22 59.43888 8.23065 23966 ft 375 kts 308°
2026-05-06 15:22 59.45728 8.19434 23971 ft 374 kts 308°
2026-05-06 15:23 59.47564 8.15806 23971 ft 374 kts 308°
2026-05-06 15:23 59.49401 8.12169 23973 ft 374 kts 308°
2026-05-06 15:23 59.51230 8.08542 23973 ft 373 kts 307°
2026-05-06 15:23 59.53060 8.04908 23981 ft 372 kts 307°
2026-05-06 15:24 59.54881 8.01284 23983 ft 372 kts 307°
2026-05-06 15:24 59.56701 7.97657 23989 ft 371 kts 307°
2026-05-06 15:24 59.58515 7.94038 23991 ft 371 kts 307°
2026-05-06 15:24 59.60327 7.90418 23994 ft 371 kts 307°
2026-05-06 15:25 59.62138 7.86791 23998 ft 370 kts 307°
2026-05-06 15:25 59.63948 7.83162 24000 ft 370 kts 307°
2026-05-06 15:25 59.65726 7.79590 23998 ft 370 kts 307°
2026-05-06 15:25 59.67529 7.75962 24007 ft 369 kts 307°
2026-05-06 15:26 59.69324 7.72344 24011 ft 369 kts 307°
2026-05-06 15:26 59.71120 7.68719 24009 ft 368 kts 307°
2026-05-06 15:26 59.72912 7.65096 24017 ft 368 kts 307°
2026-05-06 15:26 59.74706 7.61460 23926 ft 369 kts 307°
2026-05-06 15:27 59.76492 7.57840 23699 ft 364 kts 307°
2026-05-06 15:27 59.78254 7.54265 23427 ft 361 kts 307°
2026-05-06 15:27 59.80008 7.50695 23150 ft 361 kts 307°
2026-05-06 15:27 59.81744 7.47154 22874 ft 360 kts 307°
2026-05-06 15:28 59.82900 7.44795 22689 ft 359 kts 307°
2026-05-06 15:28 59.84638 7.41246 22415 ft 357 kts 307°
2026-05-06 15:28 59.86362 7.37717 22148 ft 355 kts 307°
2026-05-06 15:28 59.88078 7.34196 21873 ft 353 kts 307°
2026-05-06 15:29 59.89784 7.30693 21606 ft 351 kts 307°
2026-05-06 15:29 59.91477 7.27211 21342 ft 350 kts 307°
2026-05-06 15:29 59.93164 7.23735 21069 ft 348 kts 307°
2026-05-06 15:29 59.94843 7.20271 20800 ft 347 kts 307°
2026-05-06 15:30 59.96516 7.16811 20568 ft 346 kts 307°
2026-05-06 15:30 59.98182 7.13361 20297 ft 344 kts 307°
2026-05-06 15:30 59.99840 7.09926 20037 ft 342 kts 307°
2026-05-06 15:30 60.01490 7.06502 19791 ft 341 kts 307°
2026-05-06 15:31 60.03135 7.03083 19532 ft 341 kts 307°
2026-05-06 15:31 60.04749 6.99724 19276 ft 340 kts 307°
2026-05-06 15:31 60.06385 6.96313 19033 ft 338 kts 307°
2026-05-06 15:32 60.09635 6.89520 18546 ft 336 kts 307°
2026-05-06 15:32 60.11251 6.86134 18297 ft 336 kts 307°
2026-05-06 15:32 60.12863 6.82749 18022 ft 335 kts 307°
2026-05-06 15:32 60.14466 6.79379 17740 ft 333 kts 307°
2026-05-06 15:33 60.16066 6.76012 17461 ft 332 kts 307°
2026-05-06 15:33 60.17655 6.72658 17192 ft 331 kts 307°
2026-05-06 15:33 60.19241 6.69307 16915 ft 330 kts 307°
2026-05-06 15:33 60.20817 6.65975 16651 ft 329 kts 308°
2026-05-06 15:34 60.22393 6.62641 16388 ft 328 kts 307°
2026-05-06 15:34 60.23852 6.59138 16118 ft 324 kts 301°
2026-05-06 15:34 60.25058 6.55408 15852 ft 320 kts 295°
2026-05-06 15:34 60.26058 6.51418 15584 ft 319 kts 292°
2026-05-06 15:35 60.27035 6.47370 15345 ft 321 kts 293°
2026-05-06 15:35 60.28023 6.43347 15104 ft 320 kts 293°
2026-05-06 15:35 60.29013 6.39315 14836 ft 320 kts 293°
2026-05-06 15:35 60.29997 6.35291 14558 ft 320 kts 294°
2026-05-06 15:36 60.30981 6.31249 14090 ft 321 kts 294°
2026-05-06 15:36 60.31960 6.27213 13580 ft 319 kts 294°
2026-05-06 15:36 60.32915 6.23274 13112 ft 314 kts 294°
2026-05-06 15:36 60.33863 6.19357 12658 ft 308 kts 294°
2026-05-06 15:37 60.34796 6.15494 12207 ft 303 kts 294°
2026-05-06 15:37 60.35713 6.11688 11769 ft 299 kts 294°
2026-05-06 15:37 60.36619 6.07920 11323 ft 297 kts 294°
2026-05-06 15:37 60.37521 6.04158 10881 ft 316 kts 294°
2026-05-06 15:38 60.38517 5.99986 10437 ft 340 kts 294°
2026-05-06 15:38 60.39542 5.95697 10348 ft 335 kts 294°
2026-05-06 15:38 60.40543 5.91513 10251 ft 324 kts 294°
2026-05-06 15:38 60.41502 5.87496 10121 ft 311 kts 294°
2026-05-06 15:39 60.42422 5.83639 10004 ft 297 kts 294°
2026-05-06 15:39 60.43298 5.79956 9873 ft 284 kts 294°
2026-05-06 15:39 60.44141 5.76406 9566 ft 277 kts 294°
2026-05-06 15:39 60.44970 5.72898 9052 ft 278 kts 294°
2026-05-06 15:40 60.45816 5.69310 8213 ft 289 kts 294°
2026-05-06 15:40 60.46689 5.65665 7477 ft 297 kts 298°
2026-05-06 15:40 60.48058 5.62612 7323 ft 286 kts 324°
2026-05-06 15:40 60.49870 5.61179 7184 ft 277 kts 351°
2026-05-06 15:41 60.51758 5.61157 7072 ft 266 kts 359°
2026-05-06 15:41 60.53559 5.60992 6959 ft 252 kts 348°
2026-05-06 15:41 60.55210 5.60127 6824 ft 240 kts 338°
2026-05-06 15:41 60.56775 5.59001 6567 ft 237 kts 338°
2026-05-06 15:42 60.58297 5.57886 6462 ft 230 kts 334°
2026-05-06 15:42 60.59682 5.56284 6390 ft 232 kts 321°
2026-05-06 15:42 60.60918 5.54214 6316 ft 229 kts 318°
2026-05-06 15:42 60.62148 5.52141 6248 ft 229 kts 318°
2026-05-06 15:43 60.63316 5.49953 6160 ft 228 kts 309°
2026-05-06 15:43 60.64229 5.47335 6071 ft 226 kts 298°
2026-05-06 15:43 60.65015 5.44557 6002 ft 226 kts 298°
2026-05-06 15:43 60.65808 5.41807 5920 ft 224 kts 297°
2026-05-06 15:44 60.66418 5.38886 5795 ft 224 kts 284°
2026-05-06 15:44 60.66703 5.35776 5659 ft 223 kts 277°
2026-05-06 15:44 60.66901 5.32681 5501 ft 222 kts 269°
2026-05-06 15:44 60.66523 5.29674 5359 ft 222 kts 239°
2026-05-06 15:45 60.65417 5.27500 5222 ft 226 kts 209°
2026-05-06 15:45 60.63882 5.26826 5072 ft 232 kts 180°
2026-05-06 15:45 60.62265 5.26995 4909 ft 233 kts 179°
2026-05-06 15:45 60.60662 5.27174 4761 ft 229 kts 179°
2026-05-06 15:46 60.59056 5.27332 4611 ft 232 kts 180°
2026-05-06 15:46 60.57453 5.27480 4459 ft 229 kts 180°
2026-05-06 15:46 60.55852 5.27624 4308 ft 231 kts 180°
2026-05-06 15:46 60.54411 5.27750 4182 ft 230 kts 180°
2026-05-06 15:47 60.52828 5.27885 4030 ft 227 kts 180°
2026-05-06 15:47 60.51261 5.27641 3932 ft 223 kts 201°
2026-05-06 15:47 60.50045 5.25951 3853 ft 207 kts 235°
2026-05-06 15:47 60.49324 5.23498 3715 ft 200 kts 244°
2026-05-06 15:48 60.48698 5.20973 3459 ft 200 kts 245°
2026-05-06 15:48 60.48072 5.18465 3218 ft 200 kts 243°
2026-05-06 15:48 60.47130 5.16440 2990 ft 201 kts 208°
2026-05-06 15:48 60.45753 5.15930 2772 ft 209 kts 177°
2026-05-06 15:49 60.44318 5.16401 2638 ft 209 kts 171°
2026-05-06 15:49 60.42893 5.17025 2421 ft 208 kts 170°
2026-05-06 15:49 60.41484 5.17622 2414 ft 207 kts 171°
2026-05-06 15:49 60.40157 5.18143 2402 ft 178 kts 172°
2026-05-06 15:50 60.39036 5.18562 2210 ft 151 kts 173°
2026-05-06 15:50 60.38058 5.18928 1994 ft 137 kts 173°
2026-05-06 15:50 60.37134 5.19332 1695 ft 134 kts 172°
2026-05-06 15:50 60.36249 5.19700 1461 ft 127 kts 174°
2026-05-06 15:51 60.35352 5.19972 1435 ft 130 kts 178°
2026-05-06 15:51 60.34459 5.20228 1411 ft 132 kts 173°
2026-05-06 15:51 60.33550 5.20592 1137 ft 132 kts 173°
2026-05-06 15:51 60.32641 5.20872 801 ft 133 kts 177°
2026-05-06 15:52 60.31714 5.21042 474 ft 131 kts 175°
2026-05-06 15:52 60.30824 5.21341 251 ft 124 kts 177°
2026-05-06 15:52 60.30000 5.21585 173 ft 93 kts 170°
2026-05-06 15:52 60.29718 5.21684 170 ft 27 kts 167°
2026-05-06 15:53 60.29482 5.21763 165 ft 41 kts 174°
2026-05-06 15:53 60.29385 5.21903 166 ft 17 kts 92°
2026-05-06 15:53 60.29390 5.21989 166 ft 0 kts 77°
2026-05-06 15:54 60.29384 5.22081 166 ft 11 kts 120°
2026-05-06 15:54 60.29302 5.22151 165 ft 15 kts 170°
2026-05-06 15:54 60.29186 5.22190 164 ft 19 kts 171°
2026-05-06 15:54 60.29048 5.22232 162 ft 21 kts 170°
2026-05-06 15:55 60.28949 5.22281 162 ft 11 kts 134°
2026-05-06 15:55 60.28951 5.22394 162 ft 9 kts 88°
2026-05-06 15:55 60.28937 5.22507 161 ft 0 kts 110°